Retour au catalogue

BREEZE-M DEB

TANK

ActifHEO
NORAD 28870·DEBRIS·🇷🇺 Russia

Lancé Sep 8, 2005 depuis Baikonur Cosmodrome

Loading…

Prochains Passages (prochaines 24 heures)

TLE

FraisSource: Space-Track

Époque: Sep 13, 2026, 15:05 UTC

1 28870U 05036C   26256.62901634  .00001317  00000-0  56514-3 0  9997
2 28870  49.4428  40.5385 5344433 236.9887  60.3457  4.99461477403904

Suivez BREEZE-M DEB en temps réel avec AllMySat

Download on the App Store